COSMOS 1275 DEB, 17637

Orbit data source: Space-Track

COSMOS 1275 DEB, 17637 is space debris in LEO originally from a launch on Thu, 04 Jun 1981 UTC launched from the Plesetsk Missile And Space Complex (PKMTR). Debris objects in space refer to the collection of defunct objects orbiting the Earth. Examples of debris include non-operational satellites, rocket bodies, and fragments generated from explosions, collisions, or faulty payload assembly.

Loading next visibility...
Identifier
17637, 1981-053LG
Orbit
LEO
Country
Flag of CISCIS
Related business
Manufacturer
Unknown
Mission
Spacecraft
Bus & Motor
Unknown
Mass
Unknown
Launch date (UTC)
1981-06-04 (45 years ago)
Launch vehicle
Unknown
Launch site
Plesetsk Missile And Space Complex (PKMTR)
Object type
Payload
Rocket body
Debris
Shape & HBR
Unknown shape, 0.1 m
Radar Cross Section
Small (<0.1 m²)

Expand to show TLE details & history
Last TLE update: 2 days ago

TLE from 2 days ago
0 COSMOS 1275 DEB
1 17637U 81053LG  26036.07490116  .00000896  00000-0  10159-2 0  9997
2 17637  83.0664 259.6766 0131967 248.5871 265.4662 13.65752142 18541
Epoch: 2026-02-05T01:47Z
TLE epoch observation values (Epoch: 2026-02-05T01:47:51.460Z)
Latitude
27.27247°
Longitude
-86.09596°
Altitude
1,027.175 km
Speed
7.336 km/s
True Right ascension
05h 04m 24s
True Declination
27° 08' 16"
Sunlit
Object was in full shadow at epoch
Visualization orbit readout
Latitude
Unknown
Longitude
Unknown
Altitude
Unknown
Speed
Unknown
Apparent Right ascension
Unknown
Apparent Declination
Unknown
Sunlit
N/A
Visualization observer readout
Local Sidereal Time
17:22:23
Azimuth
Unknown
Elevation
Unknown
Doppler factor
Unknown
Orbital elements
Apogee altitude
1,109.543 km
Perigee altitude
914.491 km
Semi-major axis
7,390.154 km
Eccentricity
0.0132
Inclination
83.0664°
RAAN
259.6766°
Arg. of periapsis
248.5871°
True anomaly
263.96084°
Mean anomaly
265.4662°
Eccentric anomaly
264.7133°
Mean motion
3.41635 °/min
Orbital period
105.38 mins
BSTAR
0.0010159
Loading maneuver chart data...
Computing Atmospheric mass density...
Loading historical data...
Loading historical data...
Loading historical data...
Loading historical data...
Loading historical data...
Loading historical data...
Loading historical data...

Documentation

Showing up to 5 results
|